Date String (YYYY-MM-DD hh:mm:ss) UTC,Instrument flags,absolute air pressure of the measurement (hPa),sample flow rate (lpm),inlet stack bypass flow (lpm),air temperature of the measurement (°C),ambient temperature measured by the external sensor (°C),aerosol sample conditioner tube jacket temperature (°C),OPC LED temperature (°C),internal box temperature (°C),relative humidity of the measurement (%),span deviation,mass concentration of particles derived from Lorenz-Mie calculation of OPC scattering (μg/m³),mass concentration of particles derived from Lorenz-Mie calculation of OPC scattering (μg/m³),mass concentration of particles derived from Lorenz-Mie calculation of OPC scattering (μg/m³)
DateTimeUTC,F1_M11,P_M11,Q1_M11,Q2_M11,T1_M11,T2_M11,T3_M11,T4_M11,T5_M11,U1_M11,ZSPAN_M11,X0_M11,X2_M11,X1_M11
2024-05-31 16:00:00,SystemResetWarning,0833.2,5.00,000.00,029.3,028.5,000.0,037.9,031.1,022.6,0000.0,0009.23,0004.17,0003.43
2024-05-31 16:01:00,SystemResetWarning,0833.3,5.00,000.00,029.3,028.5,000.0,037.9,031.1,022.1,0000.0,0009.88,0004.18,0003.43
2024-05-31 16:02:00,SystemResetWarning,0833.3,5.00,000.00,029.3,028.5,000.0,037.9,031.1,022.0,0000.0,0010.16,0004.19,0003.42
2024-05-31 16:03:00,SystemResetWarning,0833.2,5.01,000.00,029.3,028.5,000.0,037.9,031.1,021.9,0000.0,0010.16,0004.19,0003.43
2024-05-31 16:04:00,SystemResetWarning,0833.3,5.01,000.00,029.3,028.5,000.0,037.9,031.1,021.8,0000.0,0011.38,0004.22,0003.44
2024-05-31 16:05:00,SystemResetWarning,0833.3,5.00,000.00,029.3,028.5,000.0,037.9,031.1,021.9,0000.0,0012.19,0004.22,0003.44
2024-05-31 16:06:00,SystemResetWarning,0833.2,5.00,000.00,029.3,028.5,000.0,037.9,031.1,022.4,0000.0,0011.94,0004.19,0003.44
2024-05-31 16:07:00,SystemResetWarning,0833.3,5.00,000.00,029.3,028.4,000.0,037.9,031.1,022.1,0000.0,0011.69,0004.17,0003.43
2024-05-31 16:08:00,SystemResetWarning,0833.2,4.99,000.00,029.3,028.4,000.0,037.9,031.1,022.1,0000.0,0011.47,0004.17,0003.41
2024-05-31 16:09:00,SystemResetWarning,0833.2,4.99,000.00,029.3,028.4,000.0,037.9,031.1,022.1,0000.0,0011.32,0004.13,0003.39
2024-05-31 16:10:00,SystemResetWarning,0833.2,5.00,000.00,029.3,028.4,000.0,037.9,031.1,022.1,0000.0,0011.20,0004.09,0003.36
2024-05-31 16:11:00,SystemResetWarning,0833.2,5.00,000.00,029.3,028.4,000.0,037.9,031.1,022.5,0000.0,0011.15,0004.04,0003.36
2024-05-31 16:12:00,SystemResetWarning,0833.2,5.01,000.00,029.3,028.4,000.0,037.9,031.1,022.2,0000.0,0010.52,0004.03,0003.36
2024-05-31 16:13:00,SystemResetWarning,0833.2,5.01,000.00,029.3,028.4,000.0,037.9,031.1,021.9,0000.0,0010.19,0004.01,0003.36
2024-05-31 16:14:00,SystemResetWarning,0833.2,5.00,000.00,029.3,028.4,000.0,037.9,031.1,022.0,0000.0,0010.20,0004.02,0003.36
2024-05-31 16:15:00,SystemResetWarning,0833.2,4.99,000.00,029.3,028.4,000.0,037.9,031.1,022.1,0000.0,0009.97,0004.01,0003.34
2024-05-31 16:16:00,SystemResetWarning,0833.2,5.00,000.00,029.3,028.4,000.0,037.9,031.1,022.1,0000.0,0008.84,0004.01,0003.34
2024-05-31 16:17:00,SystemResetWarning,0833.2,5.00,000.00,029.3,028.4,000.0,037.9,031.1,022.1,0000.0,0009.26,0004.01,0003.35
2024-05-31 16:18:00,SystemResetWarning,0833.2,5.00,000.00,029.3,028.4,000.0,037.9,031.1,022.0,0000.0,0009.75,0004.02,0003.35
2024-05-31 16:19:00,SystemResetWarning,0833.2,5.00,000.00,029.3,028.4,000.0,037.9,031.1,021.9,0000.0,0010.02,0004.04,0003.37
2024-05-31 16:20:00,SystemResetWarning,0833.2,5.00,000.00,029.3,028.4,000.0,037.8,031.1,022.1,0000.0,0010.53,0004.07,0003.38
2024-05-31 16:21:00,SystemResetWarning,0833.2,5.01,000.00,029.3,028.4,000.0,037.8,031.1,022.4,0000.0,0010.96,0004.12,0003.39
2024-05-31 16:22:00,SystemResetWarning,0833.2,5.01,000.00,029.3,028.4,000.0,037.8,031.1,022.2,0000.0,0010.84,0004.15,0003.40
2024-05-31 16:23:00,SystemResetWarning,0833.2,5.00,000.00,029.3,028.4,000.0,037.8,031.1,021.9,0000.0,0010.92,0004.17,0003.41
2024-05-31 16:24:00,SystemResetWarning,0833.2,5.00,000.00,029.3,028.4,000.0,037.8,031.1,021.7,0000.0,0011.29,0004.24,0003.42
2024-05-31 16:25:00,SystemResetWarning,0833.2,5.00,000.00,029.3,028.4,000.0,037.8,031.1,021.8,0000.0,0011.12,0004.23,0003.43
2024-05-31 16:26:00,SystemResetWarning,0833.1,5.00,000.00,029.3,028.4,000.0,037.8,031.1,021.9,0000.0,0010.95,0004.22,0003.44
2024-05-31 16:27:00,SystemResetWarning,0833.0,5.00,000.00,029.3,028.4,000.0,037.8,031.1,022.2,0000.0,0011.54,0004.25,0003.46
2024-05-31 16:28:00,SystemResetWarning,0833.0,5.00,000.00,029.3,028.4,000.0,037.8,031.1,022.3,0000.0,0011.49,0004.29,0003.46
2024-05-31 16:29:00,SystemResetWarning,0833.0,5.00,000.00,029.3,028.4,000.0,037.8,031.1,022.2,0000.0,0010.97,0004.30,0003.47
2024-05-31 16:30:00,SystemResetWarning,0833.0,5.00,000.00,029.3,028.4,000.0,037.8,031.0,022.5,0000.0,0010.46,0004.30,0003.47
2024-05-31 16:31:00,SystemResetWarning,0833.1,5.00,000.00,029.3,028.4,000.0,037.8,031.0,022.7,0000.0,0010.95,0004.32,0003.48
2024-05-31 16:32:00,SystemResetWarning,0833.3,5.00,000.00,029.3,028.4,000.0,037.8,031.0,023.1,0000.0,0011.41,0004.31,0003.48
2024-05-31 16:33:00,SystemResetWarning,0833.4,5.01,000.00,029.3,028.4,000.0,037.8,031.0,022.9,0000.0,0011.39,0004.31,0003.48
2024-05-31 16:34:00,SystemResetWarning,0833.0,5.00,000.00,029.3,028.4,000.0,037.8,031.0,022.4,0000.0,0011.80,0004.34,0003.48
2024-05-31 16:35:00,SystemResetWarning,0833.0,5.00,000.00,029.3,028.4,000.0,037.8,031.0,022.8,0000.0,0011.66,0004.30,0003.49
2024-05-31 16:36:00,SystemResetWarning,0833.0,5.00,000.00,029.3,028.4,000.0,037.8,031.0,022.2,0000.0,0012.28,0004.28,0003.48
2024-05-31 16:37:00,SystemResetWarning,0833.0,5.00,000.00,029.3,028.4,000.0,037.8,031.1,022.0,0000.0,0012.86,0004.32,0003.49
2024-05-31 16:38:00,SystemResetWarning,0833.0,5.00,000.00,029.3,028.4,000.0,037.8,031.1,022.7,0000.0,0013.35,0004.34,0003.48
2024-05-31 16:39:00,SystemResetWarning,0833.1,5.00,000.00,029.3,028.4,000.0,037.8,031.1,022.8,0000.0,0013.24,0004.33,0003.47
2024-05-31 16:40:00,SystemResetWarning,0833.1,5.00,000.00,029.3,028.4,000.0,037.8,031.1,022.8,0000.0,0013.69,0004.36,0003.48
2024-05-31 16:41:00,SystemResetWarning,0833.0,5.00,000.00,029.3,028.5,000.0,037.8,031.1,022.9,0000.0,0013.91,0004.36,0003.47
2024-05-31 16:42:00,SystemResetWarning,0832.9,5.00,000.00,029.3,028.4,000.0,037.8,031.1,022.9,0000.0,0013.25,0004.36,0003.47
2024-05-31 16:43:00,SystemResetWarning,0832.9,5.00,000.00,029.3,028.5,000.0,037.8,031.1,022.6,0000.0,0012.38,0004.38,0003.49
2024-05-31 16:44:00,SystemResetWarning,0833.1,5.00,000.00,029.3,028.5,000.0,037.8,031.1,022.5,0000.0,0012.35,0004.37,0003.50
2024-05-31 16:45:00,SystemResetWarning,0833.0,5.00,000.00,029.3,028.5,000.0,037.8,031.1,022.6,0000.0,0012.09,0004.36,0003.51
2024-05-31 16:46:00,SystemResetWarning,0833.0,5.00,000.00,029.3,028.5,000.0,037.8,031.1,022.7,0000.0,0012.20,0004.38,0003.51
2024-05-31 16:47:00,SystemResetWarning,0832.9,5.00,000.00,029.3,028.5,000.0,037.8,031.1,022.4,0000.0,0011.48,0004.39,0003.53
2024-05-31 16:48:00,SystemResetWarning,0832.9,5.00,000.00,029.3,028.5,000.0,037.8,031.1,022.2,0000.0,0011.77,0004.40,0003.54
2024-05-31 16:49:00,SystemResetWarning,0832.9,5.00,000.00,029.3,028.5,000.0,037.8,031.1,022.2,0000.0,0011.35,0004.44,0003.56
2024-05-31 16:50:00,SystemResetWarning,0833.1,5.00,000.00,029.3,028.5,000.0,037.8,031.1,022.1,0000.0,0011.63,0004.47,0003.58
2024-05-31 16:51:00,SystemResetWarning,0833.2,5.01,000.00,029.3,028.5,000.0,037.8,031.1,023.1,0000.0,0011.84,0004.53,0003.61
2024-05-31 16:52:00,SystemResetWarning,0833.1,5.01,000.00,029.3,028.5,000.0,037.8,031.1,022.9,0000.0,0012.21,0004.57,0003.62
2024-05-31 16:53:00,SystemResetWarning,0833.4,5.01,000.00,029.3,028.5,000.0,037.8,031.1,022.4,0000.0,0012.16,0004.57,0003.63
2024-05-31 16:54:00,SystemResetWarning,0833.2,4.99,000.00,029.3,028.5,000.0,037.8,031.1,022.3,0000.0,0012.65,0004.55,0003.64
2024-05-31 16:55:00,SystemResetWarning,0833.3,4.99,000.00,029.3,028.5,000.0,037.8,031.1,022.2,0000.0,0013.16,0004.59,0003.67
2024-05-31 16:56:00,SystemResetWarning,0833.3,4.99,000.00,029.3,028.5,000.0,037.8,031.1,022.3,0000.0,0013.22,0004.61,0003.69
2024-05-31 16:57:00,SystemResetWarning,0833.4,5.00,000.00,029.3,028.5,000.0,037.8,031.1,022.3,0000.0,0013.14,0004.60,0003.71
2024-05-31 16:58:00,SystemResetWarning,0833.4,5.01,000.00,029.3,028.5,000.0,037.8,031.1,022.1,0000.0,0013.80,0004.62,0003.74
2024-05-31 16:59:00,SystemResetWarning,0833.4,5.01,000.00,029.3,028.5,000.0,037.8,031.1,022.6,0000.0,0013.34,0004.61,0003.78
